Home > Weather > Kugluktuk > Past weeks

Flag for Canada Past Weather in Kugluktuk, Nunavut, Canada — Yesterday and Last 2 Weeks

Now
28 °F

Partly sunny.


Feels Like: 18 °F
Forecast: 23 / 31 °F
Wind: 13 mph from North

Location: Coppermine

Current Time: May 28, 2016 at 12:12:21 PM

Latest Report: May 28, 2016 at 11:00 AM


Visibility: 15 mi

Pressure: 30.43 "Hg

Humidity: 80%

Dew Point: 23 °F

Location of KugluktukLocation

Past Weather in Kugluktuk — Graph

°F

Kugluktuk Temperature Yesterday

Maximum temperature yesterday: 30 °F (at 3:46 PM)
Minimum temperature yesterday: 25 °F (at 6:00 AM)
Average temperature yesterday: 27 °F

High & Low Weather Summary for the Past Weeks

 TemperatureHumidityPressure
High52 °F (May 21, 2:00 PM)100% (May 14, 7:00 AM)30.43 "Hg (May 14, 7:00 AM)
Low19 °F (May 19, 2:00 AM)46% (May 20, 5:00 PM)29.80 "Hg (May 21, 7:00 PM)
Average31 °F84%30.18 "Hg
* Reported May 13 10:00 AM — May 28 10:00 AM, Kugluktuk, Weather by CustomWeather, © 2016

Note: Actual official high and low records may vary slightly from our data, if they occured in-between our weather recording intervals... More about our weather records

Advertising

Kugluktuk Weather History for the Previous 24 Hours

Scroll right to see more
 ConditionsComfort  
Time TempWeatherWind HumidityBarometerVisibility
10:00 AM
Sat, May 28
27 °FPartly sunny.14 mph80%30.42 "Hg15 mi
9:00 AM27 °FPassing clouds.13 mph86%30.42 "Hg15 mi
8:47 AM27 °FPassing clouds.13 mph86%30.41 "Hg15 mi
8:00 AM27 °FLight freezing rain. Fog.15 mph86%30.41 "Hg10 mi
7:00 AM27 °FLight mixture of precip. Partly sunny.12 mph86%30.40 "Hg15 mi
6:00 AM25 °FLight mixture of precip. Partly sunny.17 mph86%30.39 "Hg15 mi
5:00 AM27 °FLight mixture of precip. Overcast.9 mph86%30.38 "Hg15 mi
4:00 AM27 °FMostly cloudy.10 mph80%30.37 "Hg15 mi
3:00 AM23 °FMostly cloudy.8 mph86%30.37 "Hg15 mi
2:00 AM27 °FLight mixture of precip. Mostly cloudy.10 mph86%30.37 "Hg15 mi
1:00 AM27 °FLight mixture of precip. Partly sunny.12 mph93%30.36 "Hg15 mi
12:00 AM28 °FSnow flurries. Partly sunny.9 mph93%30.34 "Hg12 mi
11:54 PM
Fri, May 27
28 °FSnow flurries. Partly sunny.10 mph93%30.34 "Hg12 mi
11:00 PM28 °FSnow flurries. Partly sunny.6 mph93%30.34 "Hg8 mi
10:00 PM28 °FLight mixture of precip. Broken clouds.6 mph86%30.33 "Hg15 mi
9:00 PM28 °FLight mixture of precip. Mostly cloudy.8 mph80%30.33 "Hg15 mi
8:00 PM28 °FOvercast.13 mph80%30.32 "Hg15 mi
7:00 PM28 °FMostly cloudy.13 mph80%30.33 "Hg15 mi
6:00 PM30 °FLight mixture of precip. Overcast.5 mph80%30.32 "Hg15 mi
5:00 PM30 °FOvercast.8 mph75%30.32 "Hg15 mi
4:00 PM30 °FOvercast.8 mph80%30.32 "Hg15 mi
3:46 PM30 °FOvercast.7 mph75%30.32 "Hg15 mi
3:00 PM28 °FLight snow. Mostly cloudy.6 mph80%30.32 "Hg15 mi
2:00 PM27 °FSnow flurries. More clouds than sun.9 mph86%30.32 "Hg2 mi
1:00 PM27 °FSnow flurries. More clouds than sun.6 mph86%30.32 "Hg4 mi
12:00 PM25 °FSnow flurries. Overcast.12 mph86%30.32 "Hg2 mi
Weather by CustomWeather, © 2016

See weather overviewHow to use our weather pages